Location: G�ndlingen
(48.0142°N, 7.6396°E)
Time: 02:32:54
(UTC+00:00)

Iridium 2 - Pass Details

Date: 05 July 2020
Orbit: 504 x 515 km, 85.5° (Epoch: 04 August)

Event Time Altitude Azimuth Distance (km) Brightness Sun altitude
Rises 22:35:19 0° 351° (N) 2,648 9.0 -18.1°
Reaches altitude 10° 22:37:28 10° 347° (NNW) 1,756 7.7 -18.2°
Maximum altitude 22:41:14 57° 269° (W) 617 4.0 -18.3°
Enters shadow 22:42:24 38° 212° (SSW) 798 4.3 -18.4°
